Regional Weather Roundup
Issued by NWS

Home | Current Version | Previous Version | Text Only | Print | Product List | Glossary On
Versions: 1 2 3 4 5 6 7 8 9 10 11 12 13 14 15 16 17 18 19 20 21 22 23 24 25 26 27 28
000
ASUS45 KTFX 291810
RWRMT
MONTANA REGIONAL WEATHER ROUNDUP
NATIONAL WEATHER SERVICE GREAT FALLS MT
1200 PM MDT MON MAY 29 2017

NOTE: "FAIR" INDICATES FEW OR NO CLOUDS BELOW 12000 FEET WITH NO
SIGNIFICANT WEATHER AND/OR OBSTRUCTIONS TO VISIBILITY.

MTZ001>007-043-291900-
WEST OF THE DIVIDE

CITY           SKY/WX    TMP DP  RH WIND       PRES   REMARKS
KALISPELL      SUNNY     74  48  39 E3        30.13F
MISSOULA       SUNNY     72  46  39 S5        30.15F
BUTTE          SUNNY     68  29  23 E8        30.25F
MULLAN PASS    SUNNY     64  40  41 VRB5      30.25S
ANACONDA         N/A     70  30  23 E8        30.21F
DEER LODGE       N/A     72  28  20 SE7       30.23F
EUREKA           N/A     73  45  35 S5        30.12F
HAMILTON         N/A     72  43  35 CALM      30.15F
PLAINS           N/A     74  52  46 CALM      30.11F
RONAN            N/A     73  48  41 NW6       30.17F
$$

MTZ008-052>055-291900-
SOUTHWEST MONTANA

CITY           SKY/WX    TMP DP  RH WIND       PRES   REMARKS
BOZEMAN        SUNNY     68  47  46 N5        30.24
DILLON         SUNNY     66  42  41 VRB3      30.24F
ENNIS          SUNNY     64  37  36 VRB5      30.30F
THREE FORKS      N/A     69  45  42 CALM      30.20F
TWIN BRIDGES     N/A     66  39  37 S3        30.20F
$$

MTZ009-010-012-014-046-048-049-054-291900-
EAST SLOPES AND CENTRAL MONTANA

CITY           SKY/WX    TMP DP  RH WIND       PRES   REMARKS
CUT BANK       SUNNY     66  39  37 VRB5      30.19F
GREAT FALLS    SUNNY     68  46  45 E6        30.19F
HELENA         SUNNY     71  48  43 VRB5      30.19F
CHOTEAU          N/A     68  46  45 S7        30.21S
CONRAD           N/A     69  53  56 E7        30.19F
$$

MTZ011-013-016-021-045-047-050-051-291900-
NORTH CENTRAL MONTANA

CITY           SKY/WX    TMP DP  RH WIND       PRES   REMARKS
HAVRE          SUNNY     68  29  23 VRB3      30.20F
LEWISTOWN      SUNNY     64  38  38 VRB3      30.23F
N BAR RANCH      N/A     64  39  39 NW10      30.26S
CHINOOK          N/A     64  28  25 E3        30.21F
FORT BENTON      N/A     70  39  32 MISG      30.20F
$$

MTZ017>020-022>027-061-062-291900-
NORTHEAST MONTANA

CITY           SKY/WX    TMP DP  RH WIND       PRES   REMARKS
GLASGOW        SUNNY     65  33  30 NW13G23   30.19F
JORDAN           N/A     65  30  27 NW12G18   30.20S
SIDNEY         PTSUNNY   63  34  33 NW22      30.13F
WOLF POINT     SUNNY     66  30  26 N15G26    30.17F
MALTA          SUNNY     64  30  27 NE7G15    30.20S
PLENTYWOOD       N/A     59  34  38 NW18G30   30.11F
POPLAR           N/A     61  34  36 NW15G28   30.16S
SCOBEY           N/A     60  31  33 NW21      30.13F
$$

MTZ028>42-056>058-291900-
SOUTHCENTRAL AND SOUTHEAST MONTANA

CITY           SKY/WX    TMP DP  RH WIND       PRES   REMARKS
BAKER          MOSUNNY   60  34  37 NW20G26   30.16F
BILLINGS       MOSUNNY   66  39  37 CALM      30.22F
LIVINGSTON     SUNNY     67  37  33 NW5       30.24F
MILES CITY     SUNNY     66  29  24 NW15G24   30.19F
BIG TIMBER     SUNNY     66  37  34 VRB3      30.26F
FORSYTH          N/A     64  34  32 NW12G17   30.20F
LAUREL           N/A     66  38  35 W2        30.19F
ROUNDUP          N/A     66  32  28 NW5       30.12F
$$

REGIONAL REPORTS...DAKOTAS

CITY           SKY/WX    TMP DP  RH WIND       PRES   REMARKS
WILLISTON      CLOUDY    62  34  35 NW18G26   30.11F
MINOT          CLOUDY    60  39  45 NW25G36   30.00F
DICKINSON      PTSUNNY   58  33  39 NW20G28   30.08F
BEACH            N/A     59  32  36 NW20G33   30.17F
CROSBY         CLOUDY    59  36  41 N24       30.08S
TIOGA          CLOUDY    57  34  41 NW22      30.08F
WATFORD CITY     N/A     59  37  44 NW13G26   30.09F
BISMARCK       CLOUDY    61  39  44 NW22G31   30.04S
GRAND FORKS    CLOUDY    59  47  64 NW22G29   29.85S
FARGO          CLOUDY    58  49  72 NW21G26   29.89R
BUFFALO SD       N/A     62  36  37 NW24G33   30.08S
RAPID CITY     SUNNY     66  31  27 N23G32    30.15S
$$

REGIONAL REPORTS...WYOMING/IDAHO/WASHINGTON

CITY           SKY/WX    TMP DP  RH WIND       PRES   REMARKS
GILLETTE       SUNNY     63  35  35 N21G26    30.22S
SHERIDAN       SUNNY     67  43  41 NW15G23   30.23S
BUFFALO WY     SUNNY     63  37  38 N22G33    30.24F
YELLOWSTONE LA   N/A     50  35  56 VRB3      30.37F
IDAHO FALLS    MOSUNNY   71  43  36 N7        30.21F
SALMON         SUNNY     68  43  40 NW3       30.15F
BOISE          SUNNY     79  42  26 S10       30.09F
SPOKANE        MOSUNNY   77  47  34 NE5       30.07S
$$

REGIONAL REPORTS...ALBERTA

CITY           SKY/WX    TMP DP  RH WIND       PRES   REMARKS
EDMONTON       SUNNY     64  34  32 SE3       30.20S
CALGARY        MOSUNNY   66  37  34 S14G21    30.17F
LETHBRIDGE     MOSUNNY   70  41  35 S9        30.16F
MEDICINE HAT   SUNNY     66  32  28 VRB5      30.19F
WATERTON GATE    N/A     70  50  49 NE8         N/A
CARDSTON         N/A     70  43  37 E1          N/A
MILK RIVER       N/A     70  39  32 S8          N/A
$$

REGIONAL REPORTS...SASKATCHEWAN

CITY           SKY/WX    TMP DP  RH WIND       PRES   REMARKS
SWIFT CURRENT  SUNNY     59  30  33 N14G28    30.19S
REGINA         MOSUNNY   61  34  36 NW28G35   30.10F
SASKATOON      MOSUNNY   63  25  23 NW17G26   30.16F
VAL MARIE        N/A     61  32  33 N9          N/A
ROCKGLEN         N/A     57  34  41 NW16G23     N/A
$$




USA.gov is the U.S. government's official web portal to all federal, state and local government web resources and services.